• In Österreich
  • Länderverzeichnis
  • Für 7 Tage
  • Wassertemperatur
  • Satellitenkarten
  • Wetterkarte
  • News
  • Widgets
  • user-avatar
    Anmelden

    Stündliche Wetter Roli

    Heute, 15 Oktober, Montag

    Zeit Temperatur Niederschläge Wind Luftdruck Luftfeuchtigkeit
    00:00 +16°C° 0 mm 1 m/S 757 mmHg 92%
    01:00 +17°C° 0 mm 2 m/S 757 mmHg 94%
    02:00 +18°C° 0 mm 1 m/S 757 mmHg 94%
    03:00 +18°C° 0 mm 1 m/S 757 mmHg 95%
    04:00 +19°C° 0 mm 1 m/S 757 mmHg 95%
    05:00 +19°C° 0 mm 1 m/S 757 mmHg 96%
    06:00 +19°C° 0 mm 1 m/S 757 mmHg 96%
    07:00 +19°C° 0 mm 1 m/S 757 mmHg 92%
    08:00 +20°C° 0 mm 2 m/S 757 mmHg 86%
    09:00 +23°C° 0 mm 2 m/S 757 mmHg 81%
    10:00 +25°C° 0 mm 3 m/S 757 mmHg 75%
    11:00 +26°C° 0 mm 3 m/S 757 mmHg 72%
    12:00 +27°C° 0 mm 4 m/S 757 mmHg 69%
    13:00 +28°C° 0 mm 4 m/S 756 mmHg 66%
    14:00 +28°C° 0 mm 4 m/S 756 mmHg 68%
    15:00 +28°C° 0 mm 3 m/S 755 mmHg 70%
    16:00 +28°C° 0 mm 3 m/S 755 mmHg 72%
    17:00 +26°C° 0 mm 3 m/S 755 mmHg 78%
    18:00 +25°C° 0 mm 2 m/S 755 mmHg 83%
    19:00 +24°C° 0 mm 2 m/S 755 mmHg 88%
    20:00 +24°C° 0 mm 2 m/S 755 mmHg 90%
    21:00 +23°C° 0 mm 2 m/S 755 mmHg 92%
    22:00 +23°C° 0 mm 2 m/S 755 mmHg 94%
    23:00 +23°C° 0 mm 2 m/S 755 mmHg 94%

    Morgen, 16 Oktober, Dienstag

    Zeit Temperatur Niederschläge Wind Luftdruck Luftfeuchtigkeit
    00:00 +21°C° 0 mm 2 m/S 755 mmHg 95%
    01:00 +21°C° 0 mm 2 m/S 755 mmHg 95%
    02:00 +21°C° 0 mm 2 m/S 755 mmHg 96%
    03:00 +21°C° 0 mm 2 m/S 755 mmHg 96%
    04:00 +20°C° 0 mm 2 m/S 754 mmHg 97%
    05:00 +21°C° 0.1 mm 2 m/S 755 mmHg 96%
    06:00 +21°C° 0.1 mm 2 m/S 755 mmHg 96%
    07:00 +21°C° 0.1 mm 2 m/S 756 mmHg 95%
    08:00 +20°C° 0.2 mm 2 m/S 756 mmHg 94%
    09:00 +20°C° 0.2 mm 3 m/S 756 mmHg 92%
    10:00 +20°C° 0.2 mm 3 m/S 756 mmHg 90%
    11:00 +19°C° 0.1 mm 3 m/S 756 mmHg 88%
    12:00 +19°C° 0.1 mm 3 m/S 756 mmHg 86%
    13:00 +19°C° 0.1 mm 3 m/S 756 mmHg 84%
    14:00 +19°C° 0 mm 3 m/S 755 mmHg 84%
    15:00 +18°C° 0 mm 3 m/S 755 mmHg 84%
    16:00 +18°C° 0 mm 2 m/S 754 mmHg 84%
    17:00 +18°C° 0 mm 2 m/S 755 mmHg 85%
    18:00 +17°C° 0 mm 2 m/S 755 mmHg 87%
    19:00 +17°C° 0 mm 2 m/S 755 mmHg 88%
    20:00 +16°C° 0 mm 2 m/S 755 mmHg 89%
    21:00 +16°C° 0 mm 1 m/S 755 mmHg 91%
    22:00 +16°C° 0 mm 1 m/S 755 mmHg 92%
    23:00 +16°C° 0.2 mm 1 m/S 754 mmHg 93%

    übermorgen, 17 Oktober, Mittwoch

    Zeit Temperatur Niederschläge Wind Luftdruck Luftfeuchtigkeit
    00:00 +18°C° 0.2 mm 1 m/S 754 mmHg 93%
    01:00 +18°C° 0.2 mm 1 m/S 754 mmHg 94%
    02:00 +18°C° 0.5 mm 1 m/S 754 mmHg 94%
    03:00 +18°C° 0.5 mm 1 m/S 754 mmHg 94%
    04:00 +17°C° 0.5 mm 2 m/S 754 mmHg 95%
    05:00 +17°C° 0.3 mm 2 m/S 754 mmHg 94%
    06:00 +17°C° 0.3 mm 2 m/S 754 mmHg 94%
    07:00 +17°C° 0.3 mm 3 m/S 755 mmHg 93%
    08:00 +17°C° 0.1 mm 2 m/S 755 mmHg 88%
    09:00 +17°C° 0.1 mm 2 m/S 756 mmHg 83%
    10:00 +17°C° 0.1 mm 2 m/S 756 mmHg 77%
    11:00 +18°C° 0 mm 3 m/S 756 mmHg 67%
    12:00 +19°C° 0 mm 3 m/S 756 mmHg 56%
    13:00 +21°C° 0 mm 3 m/S 756 mmHg 46%
    14:00 +21°C° 0 mm 3 m/S 756 mmHg 47%
    15:00 +21°C° 0 mm 3 m/S 756 mmHg 48%
    16:00 +23°C° 0 mm 2 m/S 755 mmHg 49%
    17:00 +20°C° 0 mm 2 m/S 756 mmHg 51%
    18:00 +18°C° 0 mm 3 m/S 757 mmHg 54%
    19:00 +16°C° 0 mm 3 m/S 757 mmHg 57%
    20:00 +16°C° 0 mm 3 m/S 758 mmHg 55%
    21:00 +14°C° 0 mm 4 m/S 759 mmHg 54%
    22:00 +13°C° 0 mm 4 m/S 760 mmHg 53%
    23:00 +12°C° 0 mm 4 m/S 760 mmHg 55%

    18 Oktober, Donnerstag

    Zeit Temperatur Niederschläge Wind Luftdruck Luftfeuchtigkeit
    00:00 +11°C° 0 mm 4 m/S 760 mmHg 57%
    01:00 +10°C° 0 mm 3 m/S 761 mmHg 59%
    02:00 +10°C° 0 mm 3 m/S 761 mmHg 61%
    03:00 +9°C° 0 mm 3 m/S 761 mmHg 63%
    04:00 +8°C° 0 mm 3 m/S 762 mmHg 66%
    05:00 +7°C° 0 mm 3 m/S 762 mmHg 67%
    06:00 +7°C° 0 mm 2 m/S 763 mmHg 69%
    07:00 +6°C° 0 mm 2 m/S 763 mmHg 70%
    08:00 +8°C° 0 mm 3 m/S 764 mmHg 64%
    09:00 +9°C° 0 mm 3 m/S 764 mmHg 57%
    10:00 +11°C° 0 mm 3 m/S 764 mmHg 51%
    11:00 +12°C° 0 mm 3 m/S 764 mmHg 48%
    12:00 +13°C° 0 mm 3 m/S 764 mmHg 44%
    13:00 +14°C° 0 mm 3 m/S 763 mmHg 41%
    14:00 +14°C° 0 mm 3 m/S 763 mmHg 42%
    15:00 +15°C° 0 mm 2 m/S 762 mmHg 43%
    16:00 +15°C° 0 mm 2 m/S 762 mmHg 45%
    17:00 +14°C° 0 mm 2 m/S 762 mmHg 48%
    18:00 +12°C° 0 mm 2 m/S 763 mmHg 52%
    19:00 +11°C° 0 mm 1 m/S 763 mmHg 56%
    20:00 +10°C° 0 mm 1 m/S 763 mmHg 57%
    21:00 +10°C° 0 mm 1 m/S 764 mmHg 59%
    22:00 +9°C° 0 mm 1 m/S 764 mmHg 60%
    23:00 +9°C° 0 mm 1 m/S 764 mmHg 61%

    19 Oktober, Freitag

    Zeit Temperatur Niederschläge Wind Luftdruck Luftfeuchtigkeit
    00:00 +8°C° 0 mm 1 m/S 764 mmHg 61%
    01:00 +8°C° 0 mm 1 m/S 764 mmHg 62%
    02:00 +8°C° 0 mm 1 m/S 764 mmHg 62%
    03:00 +7°C° 0 mm 1 m/S 764 mmHg 62%
    04:00 +7°C° 0 mm 1 m/S 764 mmHg 63%
    05:00 +7°C° 0 mm 1 m/S 764 mmHg 63%
    06:00 +7°C° 0 mm 1 m/S 764 mmHg 64%
    07:00 +7°C° 0 mm 1 m/S 764 mmHg 64%
    08:00 +10°C° 0 mm 1 m/S 764 mmHg 59%
    09:00 +12°C° 0 mm 2 m/S 764 mmHg 53%
    10:00 +14°C° 0 mm 2 m/S 764 mmHg 47%
    11:00 +15°C° 0 mm 2 m/S 763 mmHg 46%
    12:00 +16°C° 0 mm 2 m/S 762 mmHg 44%
    13:00 +17°C° 0 mm 2 m/S 762 mmHg 43%
    14:00 +17°C° 0 mm 2 m/S 761 mmHg 46%
    15:00 +17°C° 0 mm 2 m/S 760 mmHg 50%
    16:00 +16°C° 0 mm 1 m/S 760 mmHg 53%
    17:00 +16°C° 0 mm 1 m/S 760 mmHg 54%
    18:00 +15°C° 0 mm 1 m/S 760 mmHg 55%
    19:00 +14°C° 0 mm 1 m/S 760 mmHg 56%
    20:00 +14°C° 0 mm 1 m/S 760 mmHg 57%
    21:00 +14°C° 0 mm 1 m/S 759 mmHg 57%
    22:00 +14°C° 0 mm 1 m/S 759 mmHg 57%
    23:00 +14°C° 0.3 mm 1 m/S 758 mmHg 64%

    20 Oktober, Samstag

    Zeit Temperatur Niederschläge Wind Luftdruck Luftfeuchtigkeit
    00:00 +13°C° 0.3 mm 2 m/S 757 mmHg 72%
    01:00 +13°C° 0.3 mm 2 m/S 757 mmHg 79%
    02:00 +13°C° 1.1 mm 2 m/S 756 mmHg 84%
    03:00 +13°C° 1.1 mm 2 m/S 756 mmHg 88%
    04:00 +13°C° 1.1 mm 2 m/S 755 mmHg 93%
    05:00 +14°C° 1 mm 2 m/S 755 mmHg 94%
    06:00 +14°C° 1 mm 2 m/S 754 mmHg 95%
    07:00 +14°C° 1 mm 2 m/S 754 mmHg 96%
    08:00 +15°C° 2.9 mm 2 m/S 753 mmHg 96%
    09:00 +15°C° 2.9 mm 2 m/S 753 mmHg 96%
    10:00 +16°C° 2.9 mm 2 m/S 753 mmHg 96%
    11:00 +16°C° 5 mm 2 m/S 752 mmHg 96%
    12:00 +16°C° 5 mm 2 m/S 751 mmHg 96%
    13:00 +17°C° 5 mm 2 m/S 750 mmHg 95%
    14:00 +17°C° 0.9 mm 2 m/S 750 mmHg 95%
    15:00 +17°C° 0.9 mm 2 m/S 749 mmHg 95%
    16:00 +17°C° 0.9 mm 2 m/S 749 mmHg 95%
    17:00 +16°C° 0 mm 2 m/S 749 mmHg 95%
    18:00 +16°C° 0 mm 2 m/S 750 mmHg 95%
    19:00 +16°C° 0 mm 2 m/S 750 mmHg 95%
    20:00 +14°C° 0 mm 3 m/S 750 mmHg 91%
    21:00 +13°C° 0 mm 4 m/S 751 mmHg 87%
    22:00 +12°C° 0 mm 4 m/S 751 mmHg 83%
    23:00 +11°C° 0 mm 4 m/S 751 mmHg 83%
    Mehr zeigen